TimeEST,TemperatureF,Dew PointF,Humidity,Sea Level PressureIn,VisibilityMPH,Wind Direction,Wind SpeedMPH,Gust SpeedMPH,PrecipitationIn,Events,Conditions,WindDirDegrees,DateUTC
12:55 AM,35.8,13.6,40,29.69,10.0,WSW,18.4,25.3,N/A,,Clear,250,2012-12-22 05:55:00
1:55 AM,35.6,14.0,41,29.70,10.0,West,16.1,26.5,N/A,,Clear,260,2012-12-22 06:55:00
2:55 AM,36.5,12.9,38,29.71,10.0,West,20.7,25.3,N/A,,Scattered Clouds,260,2012-12-22 07:55:00
3:55 AM,36.0,13.5,40,29.72,10.0,West,17.3,26.5,N/A,,Clear,260,2012-12-22 08:55:00
4:55 AM,36.0,13.5,40,29.75,10.0,West,19.6,27.6,N/A,,Clear,270,2012-12-22 09:55:00
5:55 AM,35.6,13.5,40,29.78,10.0,West,15.0,-,N/A,,Clear,260,2012-12-22 10:55:00
6:55 AM,35.8,13.3,40,29.81,10.0,West,13.8,-,N/A,,Scattered Clouds,260,2012-12-22 11:55:00
7:55 AM,36.5,13.8,39,29.82,10.0,West,12.7,21.9,N/A,,Clear,260,2012-12-22 12:55:00
8:55 AM,37.9,12.7,36,29.86,10.0,West,17.3,-,N/A,,Partly Cloudy,270,2012-12-22 13:55:00
9:55 AM,41.9,13.5,32,29.88,10.0,West,12.7,23.0,N/A,,Clear,280,2012-12-22 14:55:00
10:55 AM,44.1,8.6,24,29.88,10.0,NW,17.3,27.6,N/A,,Clear,310,2012-12-22 15:55:00
11:55 AM,45.5,6.8,21,29.88,10.0,WNW,21.9,28.8,N/A,,Clear,300,2012-12-22 16:55:00
12:55 PM,46.6,4.1,18,29.88,10.0,WNW,17.3,26.5,N/A,,Clear,300,2012-12-22 17:55:00
1:55 PM,47.7,0.7,14,29.88,10.0,WNW,16.1,27.6,N/A,,Clear,290,2012-12-22 18:55:00
2:55 PM,48.2,-1.7,13,29.89,10.0,WNW,20.7,28.8,N/A,,Clear,290,2012-12-22 19:55:00
3:55 PM,47.3,1.4,15,29.91,10.0,West,13.8,-,N/A,,Clear,280,2012-12-22 20:55:00
4:55 PM,45.0,3.6,18,29.94,10.0,West,9.2,-,N/A,,Clear,280,2012-12-22 21:55:00
5:55 PM,39.6,7.5,27,29.98,10.0,West,8.1,-,N/A,,Clear,260,2012-12-22 22:55:00
6:55 PM,41.7,10.4,28,30.01,10.0,WSW,8.1,-,N/A,,Clear,240,2012-12-22 23:55:00
7:55 PM,38.8,13.1,35,30.03,10.0,WSW,8.1,-,N/A,,Clear,250,2012-12-23 00:55:00
8:55 PM,38.3,14.5,38,30.04,10.0,West,6.9,-,N/A,,Clear,260,2012-12-23 01:55:00
9:55 PM,38.5,13.1,35,30.05,10.0,West,6.9,-,N/A,,Clear,280,2012-12-23 02:55:00
10:55 PM,36.5,12.7,38,30.06,10.0,West,4.6,-,N/A,,Clear,270,2012-12-23 03:55:00
11:55 PM,34.9,14.0,42,30.06,10.0,WNW,3.5,-,N/A,,Clear,300,2012-12-23 04:55:00